Regional Weather Roundup
Issued by NWS

Home | Current Version | Previous Version | Text Only | Print | Product List | Glossary Off
Versions: 1 2 3 4 5 6 7 8 9 10 11 12 13 14 15 16 17 18 19 20 21 22 23 24 25 26 27 28 29 30 31 32 33 34 35 36 37 38 39 40 41 42 43 44 45 46 47 48 49 50

000
ASUS43 KDMX 240401
RWRIA

WEATHER ROUNDUP FOR IOWA
NATIONAL WEATHER SERVICE DES MOINES IA
1100 PM CDT WED MAY 23 2018

NOTE: "FAIR" INDICATES FEW OR NO CLOUDS BELOW 12,000 FEET WITH NO
SIGNIFICANT WEATHER AND/OR OBSTRUCTIONS TO VISIBILITY.

* - THESE STATIONS ARE NOT NWS STATIONS...THUS NOT UNDER NWS
QUALITY CONTROL.  THEY ALSO DO NOT REPORT WEATHER SUCH
AS PRECIPITATION OR FOG.

IAZ001>003-012>014-020>022-031>034-043>046-240500-
   NORTHWEST IOWA

CITY           SKY/WX    TMP DP  RH WIND       PRES   REMARKS
CARROLL *      PTCLDY    75  64  69 SE9       30.05S
DENISON *      CLEAR     77  66  69 SE15      30.04S
LE MARS *      PTCLDY    79  63  57 SE14      29.97S HX  80
ORANGE CITY *  CLOUDY    77  63  61 SE12      29.99F
SHELDON *      CLOUDY    77  63  61 SE18      29.98F
SIOUX CITY     CLOUDY    77  62  59 SE12      29.97S
SPENCER        CLOUDY    76  63  64 SE14      30.03S
STORM LAKE *   CLEAR     75  64  69 S17G24    30.04S
$$

IAZ055>058-069>071-079>083-090>094-240500-
   SOUTHWEST IOWA

CITY           SKY/WX    TMP DP  RH WIND       PRES   REMARKS
ATLANTIC *     CLEAR     79  66  65 SE12      30.04S HX  81
AUDUBON *      CLEAR     75  66  73 S5        30.07S
CLARINDA *     CLEAR     75  64  69 S6        30.07R
COUNCIL BLFS * CLEAR     75  66  73 S9        30.03R
CRESTON *      PTCLDY    73  64  73 SE12      30.09S
HARLAN  *      CLEAR     77  66  69 SE14      30.07S
LAMONI         CLEAR     76  65  68 SE8       30.09R
RED OAK *      CLEAR     75  64  69 SE9       30.04S
SHENANDOAH *   CLEAR     75  63  64 S6        30.04R
$$

IAZ047>049-059>061-072>074-084-240500-
   CENTRAL IOWA

CITY           SKY/WX    TMP DP  RH WIND       PRES   REMARKS
AMES           CLEAR     72  63  73 SE6       30.08S
ANKENY *       CLEAR     73  64  73 SE7       30.09S
BOONE *        CLEAR     73  64  73 SE9       30.07S
CHARITON *     CLEAR     73  64  73 SE8       30.10S
DES MOINES     CLEAR     76  64  66 SE9       30.07S
GRINNELL*      CLEAR     72  63  72 E6        30.12S
KNOXVILLE *    CLEAR     75  63  64 SE8       30.08F
MARSHALLTOWN   CLEAR     74  65  73 SE9       30.09S
NEWTON *       CLEAR     72  64  78 SE8       30.10S
PELLA *        CLEAR     73  63  71 SE6       30.11S
PERRY *        FAIR      76  61  59 SE13      30.06F
$$

IAZ004>006-015-016-023>025-035-036-240500-
   NORTH CENTRAL IOWA

CITY           SKY/WX    TMP DP  RH WIND       PRES   REMARKS
ALGONA *       PTCLDY    73  64  73 SE13      30.06S
CLARION *      CLEAR     73  63  68 SE14      30.08F
ESTHERVILLE    PTCLDY    71  66  84 S14       30.03S
FORT DODGE *   CLEAR     77  64  64 SE8       30.07S
MASON CITY     PTCLDY    71  64  78 SE10      30.11R
FOREST CITY *  FAIR      70  64  83 SE9       30.09S
IOWA FALLS *   FAIR      73  64  75 SE9       30.11S
$$

IAZ007>011-017>019-026>030-037>042-050>054-066-240500-
   NORTHEAST IOWA

CITY           SKY/WX    TMP DP  RH WIND       PRES   REMARKS
CEDAR RAPIDS   FAIR      69  63  81 SE7       30.12R
CLINTON *      FAIR      69  60  73 E8        30.16S
DECORAH *      FAIR      70  64  83 SE7G14    30.13S
DUBUQUE        FAIR      68  59  73 SE9       30.16S
MONTICELLO *   FAIR      72  61  68 SE9       30.14S
OELWEIN *      FAIR      70  63  78 SE12      30.14R
WATERLOO       FAIR      72  64  76 SE7       30.10R
$$

IAZ064-065-067-068-078-240500-
   EAST CENTRAL IOWA

CITY           SKY/WX    TMP DP  RH WIND       PRES   REMARKS
DAVENPORT      FAIR      69  59  70 E8        30.16S
IOWA CITY      FAIR      73  62  68 SE5       30.13S
MUSCATINE *    FAIR      72  63  73 CALM      30.13S
QUAD CITIES    FAIR      69  60  73 E5        30.13S
$$

IAZ062-063-075>077-085>089-095>099-240500-
   SOUTHEAST IOWA

CITY           SKY/WX    TMP DP  RH WIND       PRES   REMARKS
BURLINGTON     CLEAR     75  62  64 SE5       30.12S
FAIRFIELD *    CLEAR     72  63  73 S6        30.11F
FORT MADISON * CLEAR     72  64  78 CALM      30.13S
KEOKUK *       CLEAR     68  64  88 E5        30.11F
OSKALOOSA *    FAIR      71  64  76 SE8       30.10F
OTTUMWA        CLEAR     71  63  75 SE7       30.10F
WASHINGTON *   CLEAR     70  66  88 SE6       30.13S
$$

ABBREVIATIONS USED IN REMARKS
   TC - TEMPERATURES IN CELSIUS
  WCI - WIND CHILL INDEX
   HX - HEAT INDEX
  VSB - VISIBILITY
$$





USA.gov is the U.S. government's official web portal to all federal, state and local government web resources and services.